星链-2723 (STARLINK-2723 )

导读 | 豆包AI

STARLINK-2723是美国太空探索技术公司(SpaceX)发射的星链(Starlink)卫星,于2021年5月9日发射升空,属于星链互联网卫星星座的一员,主要为全球范围提供低延迟、高速率的宽带互联网服务,星链星座通过大规模低轨卫星组网,持续拓展全球卫星互联网覆盖能力。

Basic Information
目录编号:
48476
目录名称:
STARLINK-2723
国际标识:
2021-040BA
轨道中心:
EARTH
卫星名称:
星链-2723
卫星全名:
星链-2723 (STARLINK-2723 )
卫星状态:
已陨落 最后检测时间 2024-12-25
发射日期:
2021-05-09 UTC
国别 :
美国 (US)
星等 :
--
Orbit Information
数据来源 国际轨道数据
星历时间: 2024-12-26T04:48:06+0800
轨道信息已过期443天
半长轴: 6523.121km
偏心率: 0.0001686
轨道倾角: 53.025°
近地点辐角 211.296°
升交点赤经 336.195°
平近点角 253.102°
近地点: 143.886km
远地点: 146.086km
周期: 87.386分钟
每日圈数: 16.478577
Detailed Information
固有亮度:
5
最大亮度:
2.5
卫星平台:
Starlink V1.0
覆盖范围:
全球
运营商:
太空探索技术公司
运营商所在国:
美国
制造商(研发单位):
太空探索技术公司
制造商所在国:
美国
使用方式:
暂无
Satellite Introduction
星链(Starlink)计划是由太空探索技术公司(SpaceX)提出的一个巨型低轨卫星互联网星座项目,计划在2019年至2024年间在太空搭建由约1.2万颗卫星组成的“星链”网络,其中1584颗将部署在地球上空550千米处的近地轨道,并从2020年开始工作。该卫星仍在工作。